Location: Unspecified
(30.8073°N, 0.0000°E)
Time: 12:49:42
(UTC+00:00)

ISS - Visible Passes

Search period start: 14 October 2019 00:00
Search period end: 24 October 2019 00:00
Orbit: 411 x 421 km, 51.6° (Epoch: 14 October)

Date Brightness Start Highest point End Pass type
(mag) Time Alt. Az. Time Alt. Az. Time Alt. Az.
21 Oct -1.3 05:33:12 10° S 05:36:01 25° SE 05:38:51 10° ENE visible
22 Oct -0.6 04:45:59 10° SSE 04:47:36 13° SE 04:49:12 10° E visible
23 Oct -3.8 05:32:04 10° SW 05:35:26 82° NW 05:38:48 10° NE visible
